Location: Abraham Lincoln Continuation High School
(33.9711°N, 117.3662°W)
Time: 01:11:17
(UTC+00:00)

Iridium 4 Rocket - Pass Details

Date: 19 January 2021
Orbit: 583 x 906 km, 86.9° (Epoch: 03 March)

Event Time Altitude Azimuth Distance (km) Brightness Sun altitude
Rises 04:28:27 0° 337° (NNW) 3,459 7.1 -41.5°
Reaches altitude 10° 04:32:00 10° 316° (NW) 2,465 6.5 -42.2°
Maximum altitude 04:34:58 15° 283° (WNW) 2,082 6.3 -42.9°
Drops below altitude 10° 04:37:51 10° 250° (WSW) 2,350 6.5 -43.4°
Sets 04:41:07 0° 227° (SW) 3,203 7.2 -44.1°
